[[[{"header":{"parameterUnit":"kt","parameterCategory":2,"dx":1,"dy":1,"la1":30.253999710083008,"la2":30.299108505249023,"lo1":-89.0895004272461,"lo2":-89.04439544677734,"nx":28,"ny":28,"refTime":"2022-10-31T21:00:00:Z","depth":0,"parameterNumber":1,"parameterNumberName":"U-component_of_WINDS"},"data":[2.2055,2.2088,2.2078,2.2111,2.2107,2.2129,2.2133,2.2137,2.2138,2.2163,2.2175,2.2168,2.2164,2.2177,2.219,2.2186,2.2193,2.2214,2.2206,2.2123,2.2111,2.2099,2.2091,2.2215,2.2215,2.2294,2.2294,2.2295,2.2,2.1996,2.201,2.2016,2.2029,2.2003,2.2006,2.2018,2.2037,2.2038,2.2049,2.207,2.2084,2.2073,2.2086,2.2102,2.209,2.2106,2.2105,2.2105,2.2016,2.2007,2.2116,2.2116,2.2116,2.2116,2.2115,2.2115,2.1896,2.1916,2.1912,2.1927,2.1927,2.1931,2.1949,2.1938,2.1952,2.1962,2.1946,2.1968,2.1966,2.1974,2.1974,2.1992,2.1972,2.1985,2.1989,2.1993,2.2,2.1891,2.1993,2.1992,2.1992,2.1992,2.1992,0,2.1816,2.1805,2.1817,2.1826,2.1836,2.1841,2.1844,2.1855,2.1827,2.1839,2.1856,2.1863,2.1879,2.1894,2.1902,2.1898,2.1872,2.1867,2.1877,2.1886,2.1894,2.1891,2.1748,2.1864,2.1863,2.1862,2.1862,2.1861,2.1711,2.1735,2.1725,2.1735,2.1733,2.1749,2.1756,2.1729,2.1738,2.1738,2.1757,2.1771,2.178,2.1809,2.1795,2.1807,2.1794,2.184,2.1795,2.1803,2.1796,2.1795,2.1798,2.1849,2.1851,2.1852,2.1853,0,2.1653,2.1633,2.1666,2.1652,2.165,2.1676,2.1665,2.1684,2.167,2.1694,2.1698,2.1677,2.1694,2.1672,2.1686,2.1675,2.1721,2.1707,2.1722,2.1718,2.1758,2.1755,2.1889,2.1906,2.1775,2.1777,2.1778,0,2.1556,2.1588,2.1556,2.1575,2.161,2.1581,2.1617,2.1608,2.1604,2.1623,2.1588,2.1606,2.1575,2.1591,2.1573,2.1607,2.1609,2.1602,2.1597,2.1605,2.1607,2.161,2.1604,2.1583,2.1583,2.1582,2.1582,0,2.1468,2.1486,2.1518,2.1519,2.1507,2.1523,2.1519,2.1513,2.152,2.1526,2.153,2.1538,2.1543,2.155,2.1528,2.1499,2.1567,2.1522,2.1561,2.1562,2.1577,2.1576,2.17,2.1581,2.1581,2.158,2.158,0,2.1385,2.139,2.1439,2.1428,2.1434,2.1455,2.146,2.1473,2.147,2.146,2.1463,2.1437,2.1463,2.142,2.1456,2.1424,2.1431,2.1427,2.1429,2.143,2.1383,2.1457,2.1576,2.1588,2.1432,2.1431,2.143,0,2.1291,2.1334,2.1308,2.1355,2.1371,2.1331,2.1353,2.1351,2.1339,2.1352,2.1338,2.1353,2.1316,2.1317,2.1338,2.1325,2.1366,2.1318,2.1339,2.134,2.1342,2.1452,2.1475,2.1552,2.1413,2.1415,2.1416,0,2.1215,2.1198,2.1208,2.1207,2.1197,2.121,2.1236,2.1243,2.1253,2.1253,2.1274,2.1293,2.1267,2.1269,2.1247,2.127,2.1337,2.1238,2.1237,2.1258,2.1403,2.1425,2.1438,2.1318,2.132,2.1322,2.1403,0,2.1097,2.1114,2.114,2.1138,2.1144,2.1171,2.1145,2.1155,2.1134,2.112,2.115,2.114,2.1147,2.1155,2.1134,2.1192,2.1179,2.115,2.1106,2.1178,2.1204,2.1215,2.1069,2.1068,2.1066,2.1065,0,0,2.1013,2.1036,2.1005,2.1027,2.1031,2.0987,2.1018,2.1016,2.1012,2.1016,2.0991,2.1016,2.1009,2.1048,2.1069,2.1071,2.1079,2.1054,2.1143,2.1152,2.116,2.1189,2.12,2.1063,2.1063,2.1062,2.1062,0,2.0963,2.0956,2.0986,2.0982,2.0975,2.0958,2.0966,2.0951,2.0943,2.0971,2.0934,2.0949,2.0968,2.0966,2.0968,2.1049,2.1021,2.1053,2.1106,2.1132,2.1143,2.1152,2.1182,2.1193,2.1059,2.1059,2.1059,0,2.0884,2.0873,2.0884,2.0887,2.0882,2.0899,2.0847,2.0866,2.0879,2.0828,2.0856,2.0847,2.0841,2.0881,2.0898,2.0875,2.0969,2.0934,2.0941,2.0942,2.0966,2.0978,2.0989,2.0842,2.0841,2.0841,0,0,2.0846,2.086,2.0838,2.0874,2.0874,2.0848,2.0854,2.0832,2.0827,2.0825,2.0812,2.0809,2.082,2.0828,2.0837,2.0884,2.0881,2.0908,2.0918,2.0927,2.0933,2.0959,2.0971,2.0838,2.0838,2.0838,0,0,2.0827,2.0802,2.0781,2.082,2.0816,2.0797,2.082,2.0794,2.0799,2.0792,2.0757,2.0755,2.0791,2.0783,2.0753,2.0821,2.0778,2.0785,2.0825,2.0837,2.0847,2.0848,2.0698,0,0,0,0,0,2.0762,2.0805,2.0786,2.0789,2.0791,2.0807,2.0808,2.0779,2.075,2.077,2.0755,2.0723,2.076,2.0733,2.0736,2.0769,2.0807,2.0813,2.0818,2.088,2.0894,2.0905,0,0,0,0,0,0,2.0763,2.0766,2.0785,2.0768,2.0768,2.0805,2.075,2.0743,2.0747,2.0741,2.0727,2.0722,2.0698,2.0729,2.0733,2.0765,2.0697,2.0809,2.0814,2.0818,2.0885,2.0896,2.0905,0,0,0,0,0,2.0763,2.0766,2.0777,2.0767,2.0767,2.074,2.0748,2.0742,2.0744,2.0721,2.0715,2.0722,2.07,2.0701,2.0731,2.0764,2.0694,2.0696,2.0812,2.0816,2.0819,2.089,0,0,0,0,0,0,2.0763,2.076,2.0777,2.0776,2.0748,2.0737,2.0734,2.0741,2.0723,2.0719,2.0714,2.071,2.0702,2.0702,2.0703,2.0765,2.0692,2.0694,2.0694,2.0815,2.0818,2.0821,0,0,0,0,0,0,2.0759,2.076,2.0776,2.0754,2.075,2.0735,2.0732,2.0754,2.0724,2.0718,2.0713,2.0713,2.0701,2.0703,2.0704,2.0738,2.0691,2.0692,2.0693,2.0694,2.0817,2.082,0,0,0,0,0,0,2.0759,2.076,2.0754,2.0751,2.0747,2.0735,2.0753,2.0758,2.0704,2.072,2.0699,2.0696,2.0703,2.0702,2.0704,2.0739,2.0738,2.0691,2.0692,2.0692,2.0693,0,0,0,0,0,0,0,2.0759,2.076,2.0782,2.0749,2.0745,2.0767,2.0767,2.0767,2.0704,2.0702,2.0699,2.0697,2.0683,2.0685,2.0686,2.0739,0,0,2.0691,2.0691,0,0,0,0,0,0,0,0,2.0759,2.0759,2.0782,2.0782,2.0782,2.0767,2.0767,2.0767,2.0703,2.0702,2.07,2.0698,2.0684,2.0685,2.0686,0,0,0,0,0,0,0,0,0,0,0,0,0,0,0,2.0782,2.0782,0,2.0767,2.0767,2.0767,2.0703,2.0702,2.07,2.0699,2.0684,2.0685,2.0686,0,0,0,0,0,0,0,0,0,0,0,0,0,0,0,0,0,0,0,0,0,0,0,0,0,0,0,0,0,0,0,0,0,0,0,0,0,0,0,0,0,0,0,0,0,0,0,0,0,0,0,0,0,0,0,0,0,0,0,0,0,0,0,0,0,0,0,0,0]}],[{"header":{"parameterUnit":"kt","parameterCategory":2,"dx":1,"dy":1,"la1":30.253999710083008,"la2":30.299108505249023,"lo1":-89.0895004272461,"lo2":-89.04439544677734,"nx":28,"ny":28,"refTime":"2022-10-31T21:00:00:Z","depth":0,"parameterNumber":2,"parameterNumberName":"V-component_of_WINDS"},"data":[-1.6968,-1.7039,-1.7051,-1.7139,-1.7164,-1.7227,-1.7253,-1.7289,-1.7321,-1.7398,-1.7444,-1.7465,-1.7502,-1.7562,-1.7614,-1.7622,-1.7645,-1.7662,-1.7669,-1.758,-1.7569,-1.7558,-1.7542,-1.7666,-1.7666,-1.776,-1.7761,-1.7761,-1.6905,-1.6931,-1.698,-1.7036,-1.7079,-1.707,-1.7114,-1.7151,-1.7207,-1.7246,-1.7292,-1.7362,-1.7418,-1.745,-1.7507,-1.7542,-1.7542,-1.7557,-1.7556,-1.7562,-1.7467,-1.745,-1.7557,-1.7557,-1.7557,-1.7556,-1.7556,-1.7556,-1.6794,-1.6836,-1.6876,-1.693,-1.6961,-1.6998,-1.7041,-1.7064,-1.7113,-1.7172,-1.7177,-1.7241,-1.7283,-1.7357,-1.7385,-1.7437,-1.7423,-1.7443,-1.7449,-1.7454,-1.7459,-1.7327,-1.7446,-1.7446,-1.7446,-1.7446,-1.7446,0,-1.6717,-1.6724,-1.6771,-1.6823,-1.6862,-1.6903,-1.6942,-1.6969,-1.6988,-1.7028,-1.7086,-1.7122,-1.7194,-1.7252,-1.7307,-1.7332,-1.7328,-1.7328,-1.7343,-1.7343,-1.7337,-1.7343,-1.719,-1.7325,-1.7324,-1.7323,-1.7323,-1.7322,-1.6608,-1.6654,-1.6701,-1.6733,-1.6757,-1.6808,-1.6841,-1.6854,-1.6889,-1.694,-1.6977,-1.7033,-1.708,-1.7173,-1.72,-1.7254,-1.7253,-1.7303,-1.7261,-1.7259,-1.7257,-1.7255,-1.7261,-1.7312,-1.7313,-1.7314,-1.7315,0,-1.6546,-1.6564,-1.6639,-1.6681,-1.6693,-1.6741,-1.6778,-1.682,-1.6837,-1.6899,-1.6914,-1.6941,-1.6999,-1.7018,-1.7087,-1.7095,-1.718,-1.7176,-1.7166,-1.7167,-1.7216,-1.7212,-1.7367,-1.7389,-1.7258,-1.726,-1.7261,0,-1.6461,-1.6521,-1.6545,-1.6587,-1.6655,-1.6666,-1.6733,-1.6754,-1.6789,-1.6837,-1.6834,-1.6879,-1.6896,-1.6945,-1.6957,-1.7028,-1.7041,-1.7052,-1.7055,-1.7054,-1.7053,-1.7074,-1.7069,-1.7057,-1.7056,-1.7055,-1.7055,0,-1.6364,-1.6445,-1.6514,-1.6536,-1.6586,-1.6619,-1.6641,-1.668,-1.6712,-1.6756,-1.6778,-1.6829,-1.6857,-1.6898,-1.6913,-1.6884,-1.7,-1.6963,-1.7012,-1.7012,-1.7038,-1.7037,-1.7168,-1.7054,-1.7053,-1.7053,-1.7053,0,-1.6298,-1.6341,-1.6437,-1.6479,-1.6501,-1.6546,-1.6596,-1.6639,-1.668,-1.669,-1.6725,-1.6726,-1.6787,-1.675,-1.6837,-1.6795,-1.6824,-1.6839,-1.6843,-1.6852,-1.681,-1.6884,-1.7004,-1.7019,-1.6858,-1.6856,-1.6855,0,-1.6183,-1.6284,-1.6293,-1.6385,-1.6434,-1.6427,-1.6478,-1.6513,-1.6531,-1.6577,-1.6596,-1.6648,-1.6623,-1.6642,-1.6682,-1.6705,-1.676,-1.6698,-1.6768,-1.677,-1.6759,-1.687,-1.6884,-1.6975,-1.6834,-1.6836,-1.6838,0,-1.6096,-1.6154,-1.617,-1.6195,-1.6242,-1.6283,-1.634,-1.6393,-1.6423,-1.6462,-1.6512,-1.6584,-1.657,-1.66,-1.6606,-1.6647,-1.6723,-1.6625,-1.6627,-1.6644,-1.6824,-1.6838,-1.6853,-1.6718,-1.6721,-1.6723,-1.6821,0,-1.5997,-1.6049,-1.609,-1.6144,-1.6178,-1.6235,-1.6253,-1.6286,-1.6288,-1.6305,-1.6377,-1.641,-1.6465,-1.6485,-1.6487,-1.6574,-1.6563,-1.6546,-1.6512,-1.6583,-1.6617,-1.663,-1.6461,-1.646,-1.646,-1.6459,0,0,-1.5884,-1.5958,-1.5965,-1.602,-1.6049,-1.6041,-1.6101,-1.6128,-1.6184,-1.6205,-1.6185,-1.6292,-1.6319,-1.6406,-1.643,-1.6451,-1.6469,-1.6442,-1.6549,-1.6559,-1.6568,-1.6603,-1.6616,-1.6458,-1.6457,-1.6457,-1.6457,0,-1.5851,-1.5877,-1.5934,-1.5963,-1.6005,-1.6019,-1.6033,-1.6073,-1.6087,-1.6157,-1.615,-1.6195,-1.6278,-1.631,-1.6337,-1.6432,-1.6425,-1.6447,-1.6493,-1.654,-1.6551,-1.6561,-1.6597,-1.661,-1.6455,-1.6455,-1.6455,0,-1.577,-1.5799,-1.5828,-1.5892,-1.5919,-1.5969,-1.5937,-1.5991,-1.6029,-1.6017,-1.6087,-1.6107,-1.615,-1.6228,-1.6264,-1.6248,-1.6385,-1.6343,-1.6349,-1.6353,-1.64,-1.6413,-1.6425,-1.6272,-1.6271,-1.627,0,0,-1.574,-1.5787,-1.5821,-1.5886,-1.5904,-1.5925,-1.5953,-1.5957,-1.5994,-1.6009,-1.6035,-1.6072,-1.6121,-1.6153,-1.62,-1.6283,-1.6294,-1.632,-1.6329,-1.6336,-1.6344,-1.6393,-1.6406,-1.6268,-1.6268,-1.6268,0,0,-1.5726,-1.5768,-1.5762,-1.5838,-1.5874,-1.5912,-1.5952,-1.5946,-1.5989,-1.5985,-1.5995,-1.6005,-1.6078,-1.6099,-1.6061,-1.6188,-1.6154,-1.6163,-1.6172,-1.6183,-1.6192,-1.6186,-1.6034,0,0,0,0,0,-1.5701,-1.5763,-1.5757,-1.5772,-1.5852,-1.5915,-1.5926,-1.5935,-1.5911,-1.5942,-1.5963,-1.5953,-1.6081,-1.6048,-1.6063,-1.6106,-1.6233,-1.6239,-1.6245,-1.6276,-1.6288,-1.6297,0,0,0,0,0,0,-1.5707,-1.5725,-1.5755,-1.5796,-1.5814,-1.5913,-1.5875,-1.5879,-1.5908,-1.5905,-1.5949,-1.5954,-1.5964,-1.604,-1.6054,-1.6095,-1.6029,-1.6235,-1.6241,-1.6245,-1.628,-1.6289,-1.6298,0,0,0,0,0,-1.5712,-1.5727,-1.5852,-1.5796,-1.5811,-1.5838,-1.5872,-1.5875,-1.5898,-1.593,-1.5935,-1.5902,-1.5965,-1.5977,-1.6049,-1.6088,-1.6019,-1.6025,-1.6239,-1.6243,-1.6247,-1.6285,0,0,0,0,0,0,-1.5715,-1.5731,-1.5856,-1.5861,-1.5772,-1.5833,-1.5842,-1.5873,-1.5922,-1.5928,-1.5884,-1.5881,-1.5966,-1.5975,-1.5985,-1.6085,-1.6012,-1.6017,-1.602,-1.6242,-1.6245,-1.6248,0,0,0,0,0,0,-1.5723,-1.5735,-1.5858,-1.5828,-1.583,-1.5828,-1.5836,-1.5898,-1.5923,-1.5873,-1.5872,-1.5882,-1.5952,-1.5975,-1.5982,-1.6078,-1.6006,-1.6011,-1.6014,-1.6016,-1.6245,-1.6247,0,0,0,0,0,0,-1.5728,-1.5739,-1.5827,-1.5829,-1.583,-1.5889,-1.5883,-1.5964,-1.5896,-1.5871,-1.5891,-1.5888,-1.5951,-1.5959,-1.598,-1.6073,-1.6077,-1.6006,-1.6009,-1.6012,-1.6013,0,0,0,0,0,0,0,-1.5732,-1.5658,-1.5825,-1.5829,-1.583,-1.5909,-1.591,-1.5912,-1.5896,-1.5893,-1.5891,-1.5889,-1.5977,-1.5982,-1.5988,-1.6069,0,0,-1.6005,-1.6008,0,0,0,0,0,0,0,0,-1.5654,-1.5657,-1.5825,-1.5826,-1.5827,-1.5909,-1.591,-1.5911,-1.5895,-1.5893,-1.5892,-1.589,-1.5978,-1.5983,-1.5987,0,0,0,0,0,0,0,0,0,0,0,0,0,0,0,-1.5825,-1.5826,0,-1.5909,-1.591,-1.5911,-1.5895,-1.5894,-1.5892,-1.5891,-1.5979,-1.5983,-1.5987,0,0,0,0,0,0,0,0,0,0,0,0,0,0,0,0,0,0,0,0,0,0,0,0,0,0,0,0,0,0,0,0,0,0,0,0,0,0,0,0,0,0,0,0,0,0,0,0,0,0,0,0,0,0,0,0,0,0,0,0,0,0,0,0,0,0,0,0,0]}]]]